User: anonymous   Login
Location: Unspecified
(0.0000°N, 0.0000°E)
Time: 07:55:59
(UTC+00:00)
Language:

COSMOS 2507 - Orbit

View from above orbital plane
View from above orbital plane
View from above satellite
View from above satellite

Ground track
Ground track

The orbit data is extracted from the following two-line orbital elements,

1 40920U 15050A   20223.77143193 +.00000012 +00000-0 +17511-4 0  9992
2 40920 082.4961 329.6621 0008143 329.8543 030.2076 12.42875572221484
Epoch (UTC): 10 August 2020 18:30:51
Eccentricity: 0.0008143
inclination: 82.4961°
perigee height: 1488 km
apogee height: 1501 km
right ascension of ascending node: 329.6621°
argument of perigee: 329.8543°
revolutions per day: 12.42875572
mean anomaly at epoch: 30.2076°
orbit number at epoch: 22148

The dashed part of the orbit path shows where the satellite is in the earth's shadow,  

DLR